C/2004 X2 ( LINEAR )

Japanese version
Home page
Updated on September 25, 2005

---------------------------------------------------------------------

* Profile

Discovery Date December 8, 2004
Magnitude 18.9 mag
Discoverer Lincoln Laboratory Near-Earth Asteroid Research project

* Orbital Elements

Epoch 2004 Aug. 23.0 TT = JDT 2453240.5
T 2004 Aug. 24.09073 TT                                 MPC
q   3.7919100            (2000.0)            P               Q
z  +0.0008616      Peri.  162.16606     -0.50255959     -0.41829281
 +/-0.0000296      Node   307.33806     +0.63084194     +0.42099734
e   0.9967328      Incl.   72.10687     +0.59116183     -0.80485549

* Finding Charts

* Magnitudes Graph

        m1 = 9.3 + 5 log d + 10 log r(t - 200)

---------------------------------------------------------------------

The orbital elements are published on M.P.E.C. 2005-B43.
The charts are made with StellaNavigator Ver.2.0 for Windows (AstroArts / ASCII).
The magnitudes graphs are made with Comet for Windows.

---------------------------------------------------------------------

Copyright(C) Seiichi Yoshida (comet@aerith.net). All rights reserved.